EW2353 Weather Reports


Display with metric or nautical units.
time (UTC)temp
F
wind
direction
speed
MPH
gust
MPH
rain 1hr
in
rain 24hr
in
rain mn
in
humidity
%
barometer
mb
20260507195324 60 13 2.0 9.0 0.00 0.00 0.00 51 1014.6
20260507194817 60 16 4.0 7.0 0.00 0.00 0.00 46 1014.7
20260507194350 61 4 3.0 10.0 0.00 0.00 0.00 49 1014.6
20260507193821 61 340 2.0 10.0 0.00 0.00 0.00 51 1014.7
20260507193314 60 53 2.0 9.0 0.00 0.00 0.00 47 1014.8
20260507192827 60 168 1.0 9.0 0.00 0.00 0.00 52 1014.9
20260507192341 59 311 5.0 9.0 0.00 0.00 0.00 48 1014.9
20260507191812 59 15 3.0 9.0 0.00 0.00 0.00 49 1014.8
20260507191325 59 254 3.0 8.0 0.00 0.00 0.00 45 1014.8
20260507190822 60 62 3.0 8.0 0.00 0.00 0.00 52 1014.8
20260507190315 59 15 3.0 8.0 0.00 0.00 0.00 52 1014.9
20260507185827 60 338 1.0 6.0 0.00 0.00 0.00 48 1015.0
20260507185320 60 283 1.0 9.0 0.00 0.00 0.00 47 1015.0
20260507184813 60 281 2.0 8.0 0.00 0.00 0.00 52 1015.0
20260507184326 59 358 1.0 8.0 0.00 0.00 0.00 57 1015.0
20260507183819 58 348 2.0 10.0 0.00 0.00 0.00 50 1015.1
20260507183312 58 30 4.0 11.0 0.00 0.00 0.00 44 1015.0
20260507182829 59 26 4.0 10.0 0.00 0.00 0.00 46 1014.9
20260507182322 60 24 3.0 10.0 0.00 0.00 0.00 49 1015.3
20260507181814 60 337 1.0 9.0 0.00 0.00 0.00 56 1015.2
20260507181327 59 358 1.0 9.0 0.00 0.00 0.00 56 1015.2
20260507180820 58 8 1.0 10.0 0.00 0.00 0.00 58 1015.3
20260507180313 58 336 5.0 15.0 0.00 0.00 0.00 50 1015.3
20260507175826 58 359 6.0 15.0 0.00 0.00 0.00 49 1015.2
20260507175318 58 359 3.0 12.0 0.00 0.00 0.00 51 1015.3
20260507174815 58 41 3.0 12.0 0.00 0.00 0.00 54 1015.5
20260507174328 58 290 3.0 8.0 0.00 0.00 0.00 52 1015.4
20260507173821 58 293 3.0 8.0 0.00 0.00 0.00 54 1015.6
20260507173314 58 278 2.0 13.0 0.00 0.00 0.00 54 1015.7
20260507172827 58 148 3.0 13.0 0.00 0.00 0.00 52 1015.6
20260507172319 58 21 5.0 12.0 0.00 0.00 0.00 50 1015.8
20260507171812 58 294 1.0 9.0 0.00 0.00 0.00 56 1015.8
20260507171346 59 342 4.0 9.0 0.00 0.00 0.00 56 1015.9
20260507170821 59 294 1.0 6.0 0.00 0.00 0.00 54 1016.0
20260507170314 58 341 1.0 11.0 0.00 0.00 0.00 53 1015.9
20260507165827 58 266 0.0 7.0 0.00 0.00 0.00 56 1016.0
20260507165320 58 112 2.0 7.0 0.00 0.00 0.00 54 1016.1
20260507164813 58 269 1.0 9.0 0.00 0.00 0.00 57 1016.0
20260507164325 57 288 1.0 9.0 0.00 0.00 0.00 56 1016.1
20260507163818 57 278 3.0 9.0 0.00 0.00 0.00 53 1016.1
20260507163311 58 272 2.0 6.0 0.00 0.00 0.00 56 1016.1
20260507162828 57 6 3.0 6.0 0.00 0.00 0.00 52 1016.2
20260507162321 57 291 1.0 6.0 0.00 0.00 0.00 53 1016.2
20260507161814 57 6 2.0 6.0 0.00 0.00 0.00 50 1016.2
20260507161326 57 89 1.0 12.0 0.00 0.00 0.00 51 1016.2
20260507160818 57 322 2.0 12.0 0.00 0.00 0.00 56 1016.4
20260507160311 57 286 2.0 7.0 0.00 0.00 0.00 54 1016.4
20260507155821 56 270 1.0 7.0 0.00 0.00 0.00 58 1016.3
20260507155314 56 290 1.0 7.0 0.00 0.00 0.00 55 1016.2
20260507154811 57 279 2.0 6.0 0.00 0.00 0.00 49 1016.3
20260507154344 56 263 0.0 5.0 0.00 0.00 0.00 58 1016.2
20260507153816 55 350 1.0 9.0 0.00 0.00 0.00 55 1016.2
20260507153328 55 319 2.0 8.0 0.00 0.00 0.00 58 1016.2
20260507152821 54 253 4.0 9.0 0.00 0.00 0.00 56 1016.2
20260507152314 54 331 4.0 9.0 0.00 0.00 0.00 56 1016.3
20260507151848 55 274 2.0 7.0 0.00 0.00 0.00 57 1016.2
20260507151339 55 172 1.0 6.0 0.00 0.00 0.00 55 1016.3
20260507150811 54 12 1.0 10.0 0.00 0.00 0.00 57 1016.3
20260507150324 54 323 4.0 10.0 0.00 0.00 0.00 54 1016.2
20260507145840 54 37 2.0 9.0 0.00 0.00 0.00 56 1016.2
20260507145313 54 337 4.0 9.0 0.00 0.00 0.00 55 1016.1
20260507144825 54 248 1.0 7.0 0.00 0.00 0.00 54 1016.2
20260507144318 54 338 1.0 8.0 0.00 0.00 0.00 59 1016.2
20260507143811 53 302 2.0 9.0 0.00 0.00 0.00 58 1016.1
20260507143324 54 276 1.0 6.0 0.00 0.00 0.00 60 1016.1
20260507142816 53 274 1.0 6.0 0.00 0.00 0.00 56 1016.1
20260507142329 53 28 1.0 10.0 0.00 0.00 0.00 58 1016.2
20260507141827 53 42 3.0 10.0 0.00 0.00 0.00 58 1016.3
20260507141319 53 246 3.0 9.0 0.00 0.00 0.00 56 1016.2
20260507140812 53 49 2.0 9.0 0.00 0.00 0.00 56 1016.2
20260507140325 53 12 1.0 6.0 0.00 0.00 0.00 57 1016.2
20260507135817 53 278 0.0 4.0 0.00 0.00 0.00 62 1016.2
20260507135330 53 72 1.0 5.0 0.00 0.00 0.00 61 1016.2
20260507134843 52 288 1.0 5.0 0.00 0.00 0.00 64 1016.2
20260507134314 52 19 1.0 7.0 0.00 0.00 0.00 64 1016.2
20260507133811 51 153 0.0 6.0 0.00 0.00 0.00 65 1016.1
20260507133345 51 33 1.0 4.0 0.00 0.00 0.00 62 1016.1
20260507132816 51 268 0.0 4.0 0.00 0.00 0.00 69 1016.1
20260507132329 50 42 0.0 6.0 0.00 0.00 0.00 64 1016.1
20260507131842 51 5 3.0 6.0 0.00 0.00 0.00 64 1016.2
20260507131313 50 8 1.0 6.0 0.00 0.00 0.00 67 1016.1
20260507130847 50 238 1.0 6.0 0.00 0.00 0.00 66 1016.1
20260507130318 51 339 1.0 5.0 0.00 0.00 0.00 66 1016.1
20260507125811 51 281 0.0 0.0 0.00 0.00 0.00 70 1016.2
20260507125324 51 275 0.0 0.0 0.00 0.00 0.00 71 1016.1
20260507124821 51 255 0.0 0.0 0.00 0.00 0.00 70 1016.2
20260507124313 50 319 0.0 0.0 0.00 0.00 0.00 73 1016.1
20260507123847 49 327 0.0 2.0 0.00 0.00 0.00 74 1016.1
20260507123319 49 284 0.0 1.0 0.00 0.00 0.00 75 1016.2
20260507122811 48 266 0.0 2.0 0.00 0.00 0.00 76 1016.2
20260507122324 48 353 0.0 3.0 0.00 0.00 0.00 78 1016.2
20260507121817 47 229 0.0 3.0 0.00 0.00 0.00 76 1016.0
20260507121330 47 9 0.0 1.0 0.00 0.00 0.00 76 1016.0
20260507120823 47 11 0.0 1.0 0.00 0.00 0.00 78 1016.1
20260507120319 47 271 0.0 1.0 0.00 0.00 0.00 76 1016.0
20260507115812 47 271 0.0 1.0 0.00 0.00 0.00 80 1016.2
20260507115325 47 260 0.0 0.0 0.00 0.00 0.00 81 1016.1
20260507114817 46 300 0.0 0.0 0.00 0.00 0.00 83 1016.0
20260507114330 45 300 0.0 0.0 0.00 0.00 0.00 84 1016.0
20260507113823 44 300 0.0 0.0 0.00 0.00 0.00 87 1016.1
20260507113336 43 300 0.0 0.0 0.00 0.00 0.00 89 1016.1
20260507112827 42 300 0.0 0.0 0.00 0.00 0.00 91 1016.0
20260507112341 40 300 0.0 0.0 0.00 0.00 0.00 93 1016.0
20260507111816 38 300 0.0 0.0 0.00 0.00 0.00 93 1016.1
20260507111329 38 300 0.0 0.0 0.00 0.00 0.00 93 1016.0
20260507110842 37 300 0.0 0.0 0.00 0.00 0.00 93 1016.0
20260507110334 37 300 0.0 0.0 0.00 0.00 0.00 93 1015.9
20260507105825 37 300 0.0 0.0 0.00 0.00 0.00 93 1015.8
20260507105318 36 300 0.0 0.0 0.00 0.00 0.00 93 1015.7
20260507104811 36 300 0.0 0.0 0.00 0.00 0.00 93 1015.6
20260507104324 36 300 0.0 0.0 0.00 0.00 0.00 92 1015.6
20260507103817 35 300 0.0 0.0 0.00 0.00 0.00 92 1015.5
20260507103314 35 300 0.0 0.0 0.00 0.00 0.00 90 1015.5
20260507102827 36 300 0.0 0.0 0.00 0.00 0.00 90 1015.5
20260507102320 36 300 0.0 0.0 0.00 0.00 0.00 90 1015.5
20260507101812 36 300 0.0 0.0 0.00 0.00 0.00 89 1015.5
20260507101325 37 300 0.0 0.0 0.00 0.00 0.00 89 1015.5
20260507100818 38 300 0.0 0.0 0.00 0.00 0.00 89 1015.5
20260507100311 38 300 0.0 0.0 0.00 0.00 0.00 89 1015.5
20260507095824 39 300 0.0 0.0 0.00 0.00 0.00 89 1015.5
20260507095341 39 300 0.0 0.0 0.00 0.00 0.00 89 1015.5
20260507094812 39 300 0.0 0.0 0.00 0.00 0.00 89 1015.4
20260507094326 39 300 0.0 0.0 0.00 0.00 0.00 89 1015.5
20260507093818 39 300 0.0 0.0 0.00 0.00 0.00 89 1015.5
20260507093311 39 300 0.0 2.0 0.00 0.00 0.00 89 1015.5
20260507092844 40 110 0.0 0.0 0.00 0.00 0.00 89 1015.5
20260507092316 40 143 0.0 0.0 0.00 0.00 0.00 90 1015.5
20260507091849 40 143 0.0 1.0 0.00 0.00 0.00 90 1015.5
20260507091320 40 143 0.0 0.0 0.00 0.00 0.00 90 1015.4
20260507090817 40 271 0.0 1.0 0.00 0.00 0.00 91 1015.4
20260507090330 40 90 0.0 1.0 0.00 0.00 0.00 91 1015.5
20260507085823 40 34 0.0 1.0 0.00 0.00 0.00 92 1015.3
20260507085316 40 54 0.0 1.0 0.00 0.00 0.00 92 1015.3
20260507084829 40 54 0.0 1.0 0.00 0.00 0.00 93 1015.3
20260507084321 40 34 0.0 1.0 0.00 0.00 0.00 93 1015.3
20260507083814 40 279 0.0 1.0 0.00 0.00 0.00 94 1015.2
20260507083328 40 251 0.0 0.0 0.00 0.00 0.00 94 1015.2
20260507082824 39 248 0.0 0.0 0.00 0.00 0.00 95 1015.1
20260507082317 39 248 0.0 0.0 0.00 0.00 0.00 95 1015.0
20260507081830 39 355 0.0 0.0 0.00 0.00 0.00 95 1015.0
20260507081323 39 355 0.0 0.0 0.00 0.00 0.00 96 1015.0
20260507080816 39 355 0.0 0.0 0.00 0.00 0.00 96 1015.1
20260507080328 39 355 0.0 0.0 0.00 0.00 0.00 96 1015.1
20260507075821 39 355 0.0 0.0 0.00 0.00 0.00 96 1015.0
20260507075334 39 355 0.0 0.0 0.00 0.00 0.00 96 1015.0
20260507074827 39 355 0.0 0.0 0.00 0.05 0.00 96 1015.0
20260507074323 39 355 0.0 0.0 0.00 0.05 0.00 96 1015.1
20260507073816 39 355 0.0 0.0 0.00 0.05 0.00 96 1015.1
20260507073326 40 355 0.0 0.0 0.00 0.05 0.00 96 1015.0
20260507072835 40 355 0.0 0.0 0.00 0.05 0.00 96 1015.1
20260507072336 40 355 0.0 0.0 0.00 0.05 0.00 96 1015.1
20260507071820 40 355 0.0 0.0 0.00 0.05 0.00 96 1015.0
20260507071333 40 355 0.0 0.0 0.00 0.05 0.00 96 1015.0
20260507070824 40 354 0.0 0.0 0.00 0.05 0.00 96 1015.0
20260507070336 40 355 0.0 0.0 0.00 0.05 0.00 96 1015.0
20260507065849 40 355 0.0 0.0 0.00 0.05 0.00 96 1015.0
20260507065320 40 355 0.0 0.0 0.00 0.05 0.00 96 1015.1
20260507064832 39 355 0.0 0.0 0.00 0.08 0.00 96 1015.2
20260507064324 39 355 0.0 0.0 0.00 0.08 0.00 96 1015.2
20260507063821 40 355 0.0 0.0 0.00 0.08 0.00 96 1015.2
20260507063314 39 355 0.0 0.0 0.00 0.08 0.00 96 1015.2
20260507062827 39 355 0.0 0.0 0.00 0.08 0.00 96 1015.3
20260507062319 39 355 0.0 0.0 0.00 0.08 0.00 96 1015.3
20260507061812 40 355 0.0 0.0 0.00 0.08 0.00 96 1015.3
20260507061325 40 355 0.0 0.0 0.00 0.08 0.00 96 1015.2
20260507060818 40 355 0.0 0.0 0.00 0.08 0.00 96 1015.3
20260507060315 40 355 0.0 0.0 0.00 0.08 0.00 96 1015.3
20260507055827 40 355 0.0 0.0 0.00 0.08 0.00 96 1015.3
20260507055320 40 355 0.0 0.0 0.00 0.08 0.00 96 1015.4
20260507054813 40 355 0.0 0.0 0.00 0.20 0.00 96 1015.3
20260507054346 40 355 0.0 0.0 0.00 0.20 0.00 95 1015.3
20260507053818 40 355 0.0 0.0 0.00 0.20 0.00 95 1015.4
20260507053351 40 355 0.0 0.0 0.00 0.20 0.00 95 1015.3
20260507052822 41 355 0.0 0.0 0.00 0.20 0.00 95 1015.4
20260507052315 41 355 0.0 0.0 0.00 0.20 0.00 96 1015.3
20260507051812 41 355 0.0 0.0 0.00 0.20 0.00 96 1015.3
20260507051325 41 355 0.0 1.0 0.00 0.20 0.00 96 1015.2
20260507050818 41 355 0.0 1.0 0.00 0.20 0.00 96 1015.3
20260507050351 41 355 0.0 0.0 0.00 0.20 0.00 95 1015.4
20260507045823 41 355 0.0 0.0 0.00 0.20 0.00 95 1015.4
20260507045336 41 355 0.0 0.0 0.00 0.20 0.00 96 1015.5
20260507044827 41 355 0.0 0.0 0.00 0.42 0.00 96 1015.5
20260507044320 41 355 0.0 0.0 0.00 0.42 0.00 96 1015.5
20260507043813 41 355 0.0 0.0 0.00 0.42 0.00 96 1015.5
20260507043326 41 355 0.0 0.0 0.00 0.42 0.00 96 1015.4
20260507042823 41 355 0.0 0.0 0.00 0.42 0.00 95 1015.4
20260507042316 40 355 0.0 0.0 0.00 0.42 0.00 95 1015.3
20260507041829 40 355 0.0 0.0 0.00 0.42 0.00 94 1015.4
20260507041321 41 355 0.0 0.0 0.00 0.42 0.00 94 1015.4
20260507040813 41 355 0.0 0.0 0.00 0.42 0.00 94 1015.4
20260507040327 41 355 0.0 0.0 0.00 0.42 0.00 94 1015.3
20260507035818 42 355 0.0 0.0 0.00 0.42 0.00 95 1015.3
20260507035315 42 355 0.0 0.0 0.00 0.42 0.00 95 1015.3
20260507034828 42 355 0.0 0.0 0.00 0.63 0.42 95 1015.3
20260507034320 42 355 0.0 0.0 0.00 0.63 0.42 95 1015.2
20260507033813 42 355 0.0 0.0 0.00 0.63 0.42 94 1015.2
20260507033326 43 355 0.0 0.0 0.00 0.63 0.42 94 1015.2
20260507032819 43 355 0.0 0.0 0.00 0.63 0.42 94 1015.2
20260507032312 43 355 0.0 0.0 0.00 0.63 0.42 94 1015.2
20260507031825 44 355 0.0 0.0 0.00 0.63 0.42 94 1015.1
20260507031322 44 355 0.0 0.0 0.00 0.63 0.42 95 1015.1
20260507030815 44 355 0.0 0.0 0.00 0.63 0.42 95 1015.2
20260507030348 44 355 0.0 0.0 0.00 0.63 0.42 93 1015.2
20260507025819 44 355 0.0 0.0 0.00 0.63 0.42 93 1015.2
20260507025312 44 355 0.0 0.0 0.00 0.63 0.42 93 1015.2
20260507024825 44 355 0.0 0.0 0.00 0.72 0.42 93 1015.3
20260507024338 44 355 0.0 0.0 0.00 0.72 0.42 92 1015.3
20260507023830 45 355 0.0 0.0 0.00 0.72 0.42 92 1015.3
20260507023322 45 355 0.0 0.0 0.00 0.72 0.42 92 1015.2
20260507022835 45 355 0.0 0.0 0.00 0.72 0.42 91 1015.3
20260507022311 45 355 0.0 0.0 0.00 0.72 0.42 89 1015.2
20260507021845 46 355 0.0 0.0 0.00 0.72 0.42 90 1015.2
20260507021316 46 355 0.0 0.0 0.00 0.72 0.42 90 1015.2
20260507020829 46 355 0.0 0.0 0.00 0.72 0.42 89 1015.0
20260507020321 46 355 0.0 0.0 0.00 0.72 0.42 89 1014.9
20260507015813 46 355 0.0 0.0 0.00 0.72 0.42 89 1014.8
20260507015326 46 355 0.0 0.0 0.00 0.72 0.42 88 1014.8
20260507014819 47 355 0.0 0.0 0.00 0.86 0.42 88 1014.9
20260507014332 46 355 0.0 0.0 0.00 0.86 0.42 88 1014.8
20260507013828 47 355 0.0 0.0 0.00 0.86 0.42 85 1014.7
20260507013321 47 355 0.0 0.0 0.00 0.86 0.42 85 1014.7
20260507012813 47 355 0.0 0.0 0.00 0.86 0.42 86 1014.6
20260507012327 48 355 0.0 0.0 0.00 0.86 0.42 86 1014.6
20260507011840 48 355 0.0 0.0 0.00 0.86 0.42 85 1014.4
20260507011311 48 355 0.0 0.0 0.00 0.86 0.42 84 1014.5
20260507010824 49 355 0.0 0.0 0.00 0.86 0.42 83 1014.5
20260507010317 49 355 0.0 0.0 0.00 0.86 0.42 82 1014.4
20260507005814 50 355 0.0 0.0 0.00 0.86 0.42 82 1014.5
20260507005347 50 355 0.0 0.0 0.00 0.86 0.42 82 1014.5
20260507004819 50 355 0.0 0.0 0.00 0.99 0.42 79 1014.4
20260507004311 51 355 0.0 0.0 0.00 0.99 0.42 77 1014.5
20260507003824 51 355 0.0 0.0 0.00 0.99 0.42 77 1014.5
20260507003317 52 355 0.0 0.0 0.00 0.99 0.42 75 1014.5
20260507002850 52 355 0.0 0.0 0.00 0.99 0.42 74 1014.4
20260507002322 53 355 0.0 0.0 0.00 0.99 0.42 70 1014.2
20260507001835 53 355 0.0 0.0 0.00 0.99 0.42 70 1014.2
20260507001347 54 355 0.0 0.0 0.00 0.99 0.42 69 1014.0
20260507000818 55 355 0.0 1.0 0.00 0.99 0.42 68 1014.0
20260507000315 55 355 0.0 1.0 0.00 0.99 0.42 67 1014.0
20260506235828 56 355 0.0 1.0 0.00 0.99 0.42 66 1014.0
20260506235321 56 355 0.0 2.0 0.00 0.99 0.42 66 1014.0
20260506234814 56 356 0.0 3.0 0.00 1.05 0.42 65 1013.9
20260506234347 56 8 1.0 3.0 0.00 1.05 0.42 65 1013.9
20260506233818 56 259 0.0 3.0 0.00 1.05 0.42 64 1014.0
20260506233330 57 9 0.0 3.0 0.00 1.05 0.42 65 1014.0
20260506232844 57 347 0.0 3.0 0.00 1.05 0.42 63 1013.9
20260506232315 57 157 0.0 3.0 0.00 1.05 0.42 64 1013.9
20260506231811 57 266 0.0 3.0 0.00 1.05 0.42 62 1013.7
20260506231325 57 77 0.0 4.0 0.00 1.05 0.42 61 1013.7
20260506230818 57 359 1.0 5.0 0.00 1.05 0.42 59 1013.8
20260506230330 57 337 2.0 5.0 0.00 1.05 0.42 58 1013.8
20260506225823 58 214 0.0 5.0 0.00 1.05 0.42 59 1013.7
20260506225316 58 322 1.0 8.0 0.00 1.05 0.42 59 1014.0
20260506224829 58 18 0.0 8.0 0.00 1.16 0.42 61 1014.0
20260506224322 58 276 4.0 7.0 0.00 1.16 0.42 60 1013.9
20260506223819 58 3 0.0 2.0 0.00 1.16 0.42 63 1013.8
20260506223311 58 288 1.0 6.0 0.00 1.16 0.42 61 1013.9
20260506222824 58 299 0.0 6.0 0.00 1.16 0.42 63 1014.1
20260506222316 58 31 0.0 6.0 0.00 1.16 0.42 61 1014.1
20260506221829 58 359 1.0 4.0 0.00 1.16 0.42 63 1014.2
20260506221342 58 281 1.0 4.0 0.00 1.16 0.42 63 1014.2
20260506220814 58 269 0.0 3.0 0.00 1.16 0.42 62 1014.1
20260506220327 58 288 0.0 4.0 0.00 1.16 0.42 64 1014.1
20260506215824 58 18 1.0 4.0 0.00 1.16 0.42 62 1014.2
20260506215336 58 263 0.0 4.0 0.00 1.16 0.42 62 1014.3
20260506214828 58 274 0.0 4.0 0.00 1.29 0.42 62 1014.3
20260506214320 58 120 1.0 4.0 0.00 1.29 0.42 61 1014.3
20260506213833 58 264 1.0 3.0 0.00 1.29 0.42 63 1014.1
20260506213325 58 264 1.0 5.0 0.00 1.29 0.42 62 1014.0
20260506212818 58 304 1.0 5.0 0.00 1.29 0.42 62 1013.9
20260506212351 59 315 1.0 6.0 0.00 1.29 0.42 61 1014.0
20260506211823 59 253 0.0 5.0 0.00 1.29 0.42 61 1013.9
20260506211315 58 2 1.0 6.0 0.00 1.29 0.42 62 1014.0
20260506210812 59 260 0.0 3.0 0.00 1.29 0.42 64 1013.9
20260506210325 59 327 1.0 6.0 0.00 1.29 0.42 64 1013.9
20260506205837 59 31 0.0 6.0 0.00 1.29 0.42 61 1013.8
20260506205329 59 359 2.0 5.0 0.00 1.29 0.42 58 1013.8
20260506204842 59 286 1.0 4.0 0.00 1.32 0.42 63 1013.7
20260506204314 59 51 0.0 6.0 0.00 1.32 0.42 65 1013.8
20260506203826 58 33 2.0 6.0 0.00 1.32 0.42 60 1013.7
20260506203319 58 358 1.0 4.0 0.00 1.32 0.42 59 1013.8
20260506202812 58 349 0.0 4.0 0.00 1.32 0.42 63 1013.8
20260506202329 58 343 1.0 4.0 0.00 1.32 0.42 61 1013.9
20260506201822 58 12 0.0 2.0 0.00 1.32 0.42 61 1013.9
20260506201315 58 335 0.0 7.0 0.00 1.32 0.42 63 1013.9
20260506200827 58 25 3.0 7.0 0.00 1.32 0.42 58 1013.8
20260506200320 58 41 0.0 3.0 0.00 1.32 0.42 62 1013.8
20260506195813 58 316 1.0 5.0 0.00 1.32 0.42 60 1013.9